Regional Weather Roundup
Issued by NWS Newport/Morehead, NC

Current Version | Previous Version | Text Only | Print | Product List | Glossary On
Versions: 1 2 3 4 5 6 7 8 9 10 11 12 13 14 15 16 17 18 19 20 21 22 23 24 25 26 27 28 29 30 31 32 33 34 35 36 37 38 39 40 41 42 43 44 45 46 47 48 49 50
000
ASUS42 KMHX 171713
RWRMHX
WEATHER ROUNDUP FOR EASTERN NORTH CAROLINA
NATIONAL WEATHER SERVICE NEWPORT/MOREHEAD CITY NC
100 PM EDT TUE OCT 17 2017

NOTE: "FAIR" INDICATES FEW OR NO CLOUDS BELOW 12,000 FEET
WITH NO SIGNIFICANT WEATHER AND/OR OBSTRUCTIONS TO VISIBILITY

NCZ015>017-031-032-045>047-102-103-171800-
NORTH COAST

CITY           SKY/WX    TMP DP  RH WIND       PRES   REMARKS
EDENTON        SUNNY     63  47  57 N6G14     30.32F
ELIZABETH CITY SUNNY     62  42  47 N20G26    30.30F
KITTY HAWK     MOSUNNY   60  41  49 N9G22     30.29F
MANTEO         MOSUNNY  N/A N/A N/A N13G24    30.30F

$$

NCZ045>047-081-094-103-104-171800-
CENTRAL COAST

CITY           SKY/WX    TMP DP  RH WIND       PRES   REMARKS
FRISCO         CLOUDY    65  47  52 NE13G24   30.26F

$$

NCZ095-097-098-100-101-171800-
SOUTHERN COAST

CITY           SKY/WX    TMP DP  RH WIND       PRES   REMARKS
BEAUFORT       CLOUDY    65  47  52 NE13G23   30.26F
CEDAR ISLAND   NOT AVBL
JACKSONVILLE   PTSUNNY   62  48  60 N14       30.29F
PINEY ISLAND     N/A    N/A N/A N/A N16G24    30.27F
WILMINGTON     CLOUDY    62  46  55 N14       30.29F


$$

NCZ011>013-027>030-043-044-078>080-089-090>093-098-171800-
COASTAL PLAIN

CITY           SKY/WX    TMP DP  RH WIND       PRES   REMARKS
AHOSKIE        SUNNY     59  40  48 N9G18     30.34F
CLINTON        SUNNY     63  42  47 NE9G16    30.33F
ELIZABETHTOWN  NOT AVBL
GOLDSBORO      SUNNY     63  41  45 NE12      30.31F
GREENVILLE     SUNNY     63  43  48 N9        30.33F
HAVELOCK       PTSUNNY   64  51  62 N16       30.29F
KENANSVILLE    SUNNY     63  41  45 NE6G21    30.32F
KINSTON        SUNNY     64  43  45 N13G22    30.32F
NEW BERN       PTSUNNY   62  47  57 NE15G21   30.31S
RICHLANDS      CLOUDY    61  46  57 NE10      30.31S
ROCKY MOUNT    SUNNY     62  39  42 N14       30.34F
WASHINGTON     SUNNY     62  43  50 N12G17    30.32F
WHITEVILLE     MOSUNNY   64  43  46 NE12G18   30.30F

$$

AMZ130-135-150-152-154-156-158-170-250-252-270-ANZ085-086-088-633-658-670-171800-
MARINE OBSERVATIONS

STATION/POSITION TIME  TEMP    WIND        PRES    WAVE   SWELL
                       AIR SEA DIR/SP/G            HT/PER HT/PER
                 (UTC) (F)     (DEG/KT/KT) (MB)    (FT/S) (FT/S)
CHESAPEAKE LIGHT NOT AVBL
64 E VA BEACH    1650   60 67   10/ 16/ 19 1025.4    7/ 8   5/ 8
DUCK             1642   58 69   10/ 18/ 21 1025.4
2 E DUCK         1630      71                N/A     7/ 8   2/12
OREGON INLET     1642   59 67  360/ 13/ 19 1025.4
13E OREGON INLT  1648      72                N/A     8/ 8   7/ 8
HATTERAS CG      1642   61 70   30/ 19/ 26 1024.8
DIAMOND BUOY     1650   64 81   20/ 23/ 27 1023.5    9/ 9   5/ 9
CAPE LOOKOUT     1700   63      20/ 18/ 25 1024.2
BEAUFORT LAB     1642   63 72   30/ 13/ 18 1025.2
30 SE NEW RVR IN 1608   66      40/ 21/ 29 1023.9
30 SE NEW RVR IN NOT AVBL
27 SE WRIGHTSVLE 1608   65 77   70/ 21/ 29 1024.0
5 SE WRIGHTSVLE  1608   61 75   30/ 17/ 29 1025.3
225 S CAPE HAT   1650   77 78   40/ 21/ 25 1017.1   12/10   8/10
41 SE CHARLESTON 1700   67 80   20/ 25/ 33 1022.3

$$



USA.gov is the U.S. government's official web portal to all federal, state and local government web resources and services.